CHINASAT 11

Satellite information

Favourite Embed

Satellite Type and Status

PAYLOADIN ORBIT

Key statistics

Satellite CHINASAT 11 at a glance.

Uptime

4513

Days in orbit

Revolutions

≈ 1.0

Per day

Orbit

GEO

Geostationary Orbit

Inclination

0.0

Latest

Satellite identification and parameters

Extended collection of information and parameters for CHINASAT 11.

Object identification

Identified? True

Debris? False

Object name: CHINASAT 11

International designator: 2013-020A

Object number (NORAD): 39157

Object ID (CCSDS): 39157

Country: PEOPLES REPUBLIC OF CHINA (PRC)

Current information (Y/N): Y

RCS size: LARGE

Orbital parameters

Period: 1436.116 minutes

Inclination: 0.0185 deg

SMA: 42165.098 km

Apoapsis: 35793.817 km

Periapsis: 35780.11 km

RAAN: 105.3409 deg

Eccentricy: 0.00016254

Argument of periapsis: 75.0372 deg

Mean anomaly: 253.1558 deg

Mean motion: 1.00270478 rev/day

Mean motion (dot): -0.00000293 rev/day2

B* drag term: 0.0 1/REarth

Two-line elements (TLE)

Creation date: Sept. 8, 2025, 3:16 a.m.

Reference frame: TEME

Reference center: EARTH

Epoch: Sept. 7, 2025, 11:13 p.m. UTC

TLE line 0: 0 CHINASAT 11

TLE line 1: 1 39157U 13020A 25250.96760432 -.00000293 00000-0 00000-0 0 9997

TLE line 2: 2 39157 0.0185 105.3409 0001625 75.0372 253.1558 1.00270478 45064

Live tracking on map

Real-time ground track for satellite CHINASAT 11.

In-orbit conjunctions

There are no conjunctions computed for CHINASAT 11, at the moment. Check back to stay up to date, as we update our databases every day.

Go to all conjunctions

Associated space launch

CHINASAT 11 was lifted into orbit during the mission ‘Long March 3B/E | Zhongxing 11’, on board a Long March 3 space rocket.

The launch took place on May 1, 2013, 4:06 p.m. from Launch Complex 2 (LC-2).

For more information about the launch, click the button.

Launch to space Long March 3B/E | Zhongxing 11
Long March 3B/E | Zhongxing 11

Agency: N/A

Status: Launch Successful

Launch date: May 1, 2013, 4:06 p.m. UTC

Rocket: Long March 3

Launch pad: Launch Complex 2 (LC-2)

Location: Xichang Satellite Launch Center, People's Republic of China

...

Latest news about this satellite

There are no fresh news available about this satellite. Check back as we update our databases every day.


Newsletter sign-up

Weekly statistics, charts and insights to help you stay on top of the space industry.